• In Deutschland
  • Länderverzeichnis
  • Für 7 Tage
  • Wassertemperatur
  • Satellitenkarten
  • Wetterkarte
  • Widgets
  • user-avatar
    Anmelden

    Stündliche Wetter Eisenach

    Heute, 22 Januar, Montag

    Zeit Temperatur Niederschläge Wind Luftdruck Luftfeuchtigkeit
    00:00 -2°C° 0 mm 2 m/S 740 mmHg 92%
    01:00 -2°C° 0 mm 2 m/S 739 mmHg 92%
    02:00 -2°C° 0,1 mm 2 m/S 739 mmHg 92%
    03:00 -2°C° 0,1 mm 3 m/S 738 mmHg 91%
    04:00 -2°C° 0,1 mm 3 m/S 737 mmHg 91%
    05:00 -1°C° 0,2 mm 3 m/S 737 mmHg 91%
    06:00 -2°C° 0,2 mm 4 m/S 736 mmHg 90%
    07:00 -2°C° 0,2 mm 4 m/S 736 mmHg 90%
    08:00 -2°C° 0,4 mm 4 m/S 735 mmHg 90%
    09:00 -2°C° 0,4 mm 4 m/S 735 mmHg 91%
    10:00 -1°C° 0,4 mm 4 m/S 735 mmHg 91%
    11:00 0°C° 0,2 mm 3 m/S 734 mmHg 93%
    12:00 +1°C° 0,2 mm 3 m/S 734 mmHg 95%
    13:00 +1°C° 0,2 mm 3 m/S 734 mmHg 96%
    14:00 +2°C° 0 mm 3 m/S 734 mmHg 97%
    15:00 +2°C° 0 mm 3 m/S 735 mmHg 98%
    16:00 +3°C° 0 mm 3 m/S 735 mmHg 98%
    17:00 +3°C° 0,1 mm 3 m/S 735 mmHg 98%
    18:00 +3°C° 0,1 mm 3 m/S 736 mmHg 97%
    19:00 +3°C° 0,1 mm 4 m/S 737 mmHg 97%
    20:00 +1°C° 0,1 mm 4 m/S 737 mmHg 96%
    21:00 +1°C° 0,1 mm 4 m/S 738 mmHg 96%
    22:00 +1°C° 0,1 mm 4 m/S 739 mmHg 96%
    23:00 +1°C° 0,1 mm 4 m/S 740 mmHg 96%

    Morgen, 23 Januar, Dienstag

    Zeit Temperatur Niederschläge Wind Luftdruck Luftfeuchtigkeit
    00:00 +1°C° 0,1 mm 4 m/S 740 mmHg 95%
    01:00 +1°C° 0,1 mm 4 m/S 741 mmHg 95%
    02:00 +1°C° 0 mm 4 m/S 742 mmHg 95%
    03:00 +2°C° 0 mm 3 m/S 742 mmHg 95%
    04:00 +2°C° 0 mm 3 m/S 743 mmHg 96%
    05:00 +2°C° 0 mm 3 m/S 743 mmHg 96%
    06:00 +2°C° 0 mm 3 m/S 744 mmHg 96%
    07:00 +3°C° 0 mm 2 m/S 744 mmHg 96%
    08:00 +3°C° 0 mm 2 m/S 745 mmHg 96%
    09:00 +3°C° 0 mm 2 m/S 745 mmHg 96%
    10:00 +3°C° 0 mm 2 m/S 746 mmHg 96%
    11:00 +3°C° 0 mm 3 m/S 746 mmHg 95%
    12:00 +3°C° 0 mm 3 m/S 746 mmHg 93%
    13:00 +4°C° 0 mm 3 m/S 746 mmHg 91%
    14:00 +4°C° 0 mm 3 m/S 746 mmHg 91%
    15:00 +4°C° 0 mm 3 m/S 746 mmHg 92%
    16:00 +3°C° 0 mm 3 m/S 746 mmHg 92%
    17:00 +3°C° 0,1 mm 3 m/S 745 mmHg 92%
    18:00 +3°C° 0,1 mm 4 m/S 745 mmHg 92%
    19:00 +3°C° 0,1 mm 4 m/S 745 mmHg 93%
    20:00 +4°C° 0,4 mm 4 m/S 745 mmHg 93%
    21:00 +3°C° 0,4 mm 5 m/S 745 mmHg 93%
    22:00 +3°C° 0,4 mm 5 m/S 745 mmHg 93%
    23:00 +3°C° 0,2 mm 5 m/S 744 mmHg 93%

    übermorgen, 24 Januar, Mittwoch

    Zeit Temperatur Niederschläge Wind Luftdruck Luftfeuchtigkeit
    00:00 +5°C° 0,2 mm 5 m/S 744 mmHg 93%
    01:00 +5°C° 0,2 mm 5 m/S 744 mmHg 94%
    02:00 +5°C° 0,1 mm 5 m/S 744 mmHg 94%
    03:00 +6°C° 0,1 mm 4 m/S 744 mmHg 94%
    04:00 +6°C° 0,1 mm 4 m/S 744 mmHg 94%
    05:00 +6°C° 0 mm 4 m/S 744 mmHg 94%
    06:00 +6°C° 0 mm 4 m/S 744 mmHg 94%
    07:00 +6°C° 0 mm 4 m/S 744 mmHg 94%
    08:00 +7°C° 0 mm 5 m/S 744 mmHg 93%
    09:00 +7°C° 0 mm 5 m/S 744 mmHg 93%
    10:00 +7°C° 0 mm 5 m/S 744 mmHg 92%
    11:00 +8°C° 0 mm 6 m/S 744 mmHg 91%
    12:00 +8°C° 0 mm 6 m/S 743 mmHg 89%
    13:00 +9°C° 0 mm 6 m/S 743 mmHg 88%
    14:00 +9°C° 0 mm 6 m/S 743 mmHg 88%
    15:00 +9°C° 0 mm 6 m/S 742 mmHg 88%
    16:00 +9°C° 0 mm 6 m/S 742 mmHg 89%
    17:00 +8°C° 0 mm 6 m/S 742 mmHg 89%
    18:00 +8°C° 0 mm 6 m/S 742 mmHg 89%
    19:00 +8°C° 0 mm 6 m/S 741 mmHg 89%
    20:00 +8°C° 0 mm 6 m/S 741 mmHg 89%
    21:00 +8°C° 0 mm 6 m/S 741 mmHg 88%
    22:00 +8°C° 0 mm 6 m/S 741 mmHg 88%
    23:00 +7°C° 0 mm 6 m/S 740 mmHg 87%

    25 Januar, Donnerstag

    Zeit Temperatur Niederschläge Wind Luftdruck Luftfeuchtigkeit
    00:00 +7°C° 0 mm 6 m/S 740 mmHg 87%
    01:00 +7°C° 0 mm 6 m/S 740 mmHg 87%
    02:00 +7°C° 0,1 mm 6 m/S 740 mmHg 86%
    03:00 +7°C° 0,1 mm 6 m/S 739 mmHg 86%
    04:00 +7°C° 0,1 mm 6 m/S 739 mmHg 85%
    05:00 +7°C° 0,1 mm 6 m/S 739 mmHg 86%
    06:00 +5°C° 0,1 mm 6 m/S 739 mmHg 86%
    07:00 +5°C° 0,1 mm 6 m/S 738 mmHg 86%
    08:00 +7°C° 0,4 mm 6 m/S 738 mmHg 85%
    09:00 +7°C° 0,4 mm 6 m/S 738 mmHg 84%
    10:00 +7°C° 0,4 mm 6 m/S 738 mmHg 82%
    11:00 +7°C° 0,3 mm 6 m/S 738 mmHg 82%
    12:00 +8°C° 0,3 mm 6 m/S 737 mmHg 81%
    13:00 +8°C° 0,3 mm 7 m/S 737 mmHg 81%
    14:00 +8°C° 0,2 mm 6 m/S 737 mmHg 82%
    15:00 +7°C° 0,2 mm 6 m/S 737 mmHg 84%
    16:00 +7°C° 0,2 mm 5 m/S 736 mmHg 85%
    17:00 +7°C° 0,3 mm 5 m/S 737 mmHg 87%
    18:00 +7°C° 0,3 mm 5 m/S 737 mmHg 88%
    19:00 +7°C° 0,3 mm 5 m/S 737 mmHg 89%
    20:00 +6°C° 0 mm 4 m/S 738 mmHg 89%
    21:00 +6°C° 0 mm 4 m/S 738 mmHg 90%
    22:00 +5°C° 0 mm 3 m/S 739 mmHg 90%
    23:00 +5°C° 0,1 mm 3 m/S 739 mmHg 91%

    26 Januar, Freitag

    Zeit Temperatur Niederschläge Wind Luftdruck Luftfeuchtigkeit
    00:00 +4°C° 0,1 mm 3 m/S 739 mmHg 92%
    01:00 +5°C° 0,1 mm 2 m/S 740 mmHg 92%
    02:00 +5°C° 0 mm 2 m/S 740 mmHg 93%
    03:00 +5°C° 0 mm 2 m/S 739 mmHg 94%
    04:00 +4°C° 0 mm 2 m/S 739 mmHg 95%
    05:00 +4°C° 0 mm 2 m/S 740 mmHg 95%
    06:00 +4°C° 0 mm 2 m/S 740 mmHg 95%
    07:00 +4°C° 0 mm 2 m/S 740 mmHg 95%
    08:00 +4°C° 0 mm 2 m/S 741 mmHg 94%
    09:00 +4°C° 0 mm 2 m/S 741 mmHg 93%
    10:00 +5°C° 0 mm 2 m/S 741 mmHg 92%
    11:00 +5°C° 0 mm 2 m/S 742 mmHg 89%
    12:00 +5°C° 0 mm 2 m/S 742 mmHg 86%
    13:00 +6°C° 0 mm 2 m/S 742 mmHg 83%
    14:00 +6°C° 0 mm 2 m/S 742 mmHg 84%
    15:00 +6°C° 0 mm 2 m/S 742 mmHg 85%
    16:00 +5°C° 0 mm 2 m/S 742 mmHg 86%
    17:00 +5°C° 0 mm 2 m/S 743 mmHg 88%
    18:00 +4°C° 0 mm 2 m/S 743 mmHg 90%
    19:00 +4°C° 0 mm 2 m/S 744 mmHg 92%
    20:00 +3°C° 0 mm 2 m/S 744 mmHg 92%
    21:00 +3°C° 0 mm 2 m/S 745 mmHg 93%
    22:00 +3°C° 0 mm 2 m/S 745 mmHg 93%
    23:00 +2°C° 0 mm 2 m/S 746 mmHg 93%

    27 Januar, Samstag

    Zeit Temperatur Niederschläge Wind Luftdruck Luftfeuchtigkeit
    00:00 +2°C° 0 mm 2 m/S 746 mmHg 93%
    01:00 +1°C° 0 mm 3 m/S 746 mmHg 93%
    02:00 +2°C° 0 mm 2 m/S 747 mmHg 93%
    03:00 +2°C° 0 mm 2 m/S 747 mmHg 93%
    04:00 +2°C° 0 mm 2 m/S 747 mmHg 93%
    05:00 +2°C° 0 mm 2 m/S 748 mmHg 93%
    06:00 +2°C° 0 mm 2 m/S 748 mmHg 92%
    07:00 +2°C° 0 mm 2 m/S 749 mmHg 92%
    08:00 +3°C° 0 mm 2 m/S 750 mmHg 90%
    09:00 +3°C° 0 mm 2 m/S 751 mmHg 87%
    10:00 +3°C° 0 mm 2 m/S 751 mmHg 85%
    11:00 +3°C° 0 mm 3 m/S 752 mmHg 81%
    12:00 +3°C° 0 mm 3 m/S 752 mmHg 77%
    13:00 +4°C° 0 mm 3 m/S 753 mmHg 73%
    14:00 +4°C° 0 mm 3 m/S 753 mmHg 74%
    15:00 +4°C° 0 mm 2 m/S 753 mmHg 75%
    16:00 +4°C° 0 mm 2 m/S 754 mmHg 76%
    17:00 +4°C° 0 mm 1 m/S 754 mmHg 79%
    18:00 +3°C° 0 mm 1 m/S 755 mmHg 82%
    19:00 +2°C° 0 mm 1 m/S 755 mmHg 85%
    20:00 +2°C° 0 mm 1 m/S 756 mmHg 86%
    21:00 +2°C° 0 mm 1 m/S 756 mmHg 87%
    22:00 +1°C° 0 mm 1 m/S 756 mmHg 88%
    23:00 +1°C° 0 mm 1 m/S 757 mmHg 88%
    Mehr zeigen